Time,TemperatureF,DewpointF,PressureIn,WindDirection,WindDirectionDegrees,WindSpeedMPH,WindSpeedGustMPH,Humidity,HourlyPrecipIn,Conditions,Clouds,dailyrainin,SoftwareType,DateUTC
2013-03-28 00:02:00,32.0,26.0,29.85,West,268,1.0,3.0,77,0.00,,,0.00,,2013-03-28 00:02:00,
2013-03-28 00:11:00,32.0,26.0,29.85,West,268,1.0,3.0,77,0.00,,,0.00,,2013-03-28 00:11:00,
2013-03-28 00:22:00,32.0,26.0,29.85,North,0,0.0,5.0,79,0.00,,,0.00,,2013-03-28 00:22:00,
2013-03-28 00:32:00,31.0,26.0,29.85,West,269,1.0,4.0,82,0.00,,,0.00,,2013-03-28 00:32:00,
2013-03-28 00:42:00,31.0,26.0,29.85,West,269,1.0,4.0,82,0.00,,,0.00,,2013-03-28 00:42:00,
2013-03-28 00:52:00,31.0,26.0,29.85,West,269,1.0,4.0,82,0.00,,,0.00,,2013-03-28 00:52:00,
2013-03-28 01:01:00,31.0,27.0,29.85,North,0,0.0,3.0,84,0.00,,,0.00,,2013-03-28 01:01:00,
2013-03-28 01:11:00,31.0,27.0,29.85,North,0,0.0,3.0,84,0.00,,,0.00,,2013-03-28 01:11:00,
2013-03-28 01:22:00,31.0,27.0,29.85,North,0,0.0,4.0,85,0.00,,,0.00,,2013-03-28 01:22:00,
2013-03-28 01:32:00,31.0,27.0,29.85,North,0,0.0,4.0,85,0.00,,,0.00,,2013-03-28 01:32:00,
2013-03-28 01:42:00,31.0,27.0,29.85,North,0,0.0,4.0,85,0.00,,,0.00,,2013-03-28 01:42:00,
2013-03-28 01:52:00,31.0,27.0,29.85,SW,234,1.0,4.0,86,0.00,,,0.00,,2013-03-28 01:52:00,
2013-03-28 02:02:00,31.0,28.0,29.84,North,0,0.0,3.0,87,0.00,,,0.00,,2013-03-28 02:02:00,
2013-03-28 02:12:00,31.0,28.0,29.84,North,0,0.0,3.0,87,0.00,,,0.00,,2013-03-28 02:12:00,
2013-03-28 02:22:00,31.0,28.0,29.84,North,0,0.0,4.0,87,0.00,,,0.00,,2013-03-28 02:22:00,
2013-03-28 02:32:00,31.0,28.0,29.84,North,0,0.0,4.0,87,0.00,,,0.00,,2013-03-28 02:32:00,
2013-03-28 02:42:00,31.0,28.0,29.84,North,0,0.0,4.0,87,0.00,,,0.00,,2013-03-28 02:42:00,
2013-03-28 02:52:00,31.0,28.0,29.84,North,0,0.0,4.0,87,0.00,,,0.00,,2013-03-28 02:52:00,
2013-03-28 03:01:00,30.0,27.0,29.84,North,0,0.0,3.0,88,0.00,,,0.00,,2013-03-28 03:01:00,
2013-03-28 03:12:00,30.0,27.0,29.84,North,0,0.0,3.0,88,0.00,,,0.00,,2013-03-28 03:12:00,
2013-03-28 03:22:00,30.0,27.0,29.84,North,0,0.0,3.0,88,0.00,,,0.00,,2013-03-28 03:22:00,
2013-03-28 03:33:00,30.0,27.0,29.84,East,96,1.0,4.0,88,0.00,,,0.00,,2013-03-28 03:33:00,
2013-03-28 03:42:00,30.0,27.0,29.84,East,96,1.0,4.0,88,0.00,,,0.00,,2013-03-28 03:42:00,
2013-03-28 03:53:00,30.0,27.0,29.83,WNW,301,1.0,5.0,89,0.00,,,0.00,,2013-03-28 03:53:00,
2013-03-28 04:02:00,30.0,27.0,29.83,WNW,301,1.0,5.0,89,0.00,,,0.00,,2013-03-28 04:02:00,
2013-03-28 04:12:00,30.0,27.0,29.83,WNW,301,1.0,5.0,89,0.00,,,0.00,,2013-03-28 04:12:00,
2013-03-28 04:22:00,30.0,27.0,29.83,WNW,303,1.0,4.0,89,0.00,,,0.00,,2013-03-28 04:22:00,
2013-03-28 04:32:00,30.0,27.0,29.83,WNW,303,1.0,4.0,89,0.00,,,0.00,,2013-03-28 04:32:00,
2013-03-28 04:42:00,30.0,27.0,29.83,WNW,303,1.0,4.0,89,0.00,,,0.00,,2013-03-28 04:42:00,
2013-03-28 04:52:00,30.0,27.0,29.83,WNW,295,1.0,5.0,90,0.00,,,0.00,,2013-03-28 04:52:00,
2013-03-28 05:02:00,30.0,27.0,29.83,WNW,292,1.0,3.0,90,0.00,,,0.00,,2013-03-28 05:02:00,
2013-03-28 05:12:00,30.0,27.0,29.83,WNW,292,1.0,3.0,90,0.00,,,0.00,,2013-03-28 05:12:00,
2013-03-28 05:22:00,30.0,27.0,29.83,WNW,292,1.0,3.0,90,0.00,,,0.00,,2013-03-28 05:22:00,
2013-03-28 05:31:00,29.0,27.0,29.83,North,0,0.0,2.0,91,0.00,,,0.00,,2013-03-28 05:31:00,
2013-03-28 05:42:00,29.0,27.0,29.83,North,0,0.0,2.0,91,0.00,,,0.00,,2013-03-28 05:42:00,
2013-03-28 05:52:00,29.0,27.0,29.84,North,0,0.0,2.0,91,0.00,,,0.00,,2013-03-28 05:52:00,
2013-03-28 06:02:00,29.0,27.0,29.83,North,0,0.0,3.0,91,0.00,,,0.00,,2013-03-28 06:02:00,
2013-03-28 06:12:00,29.0,27.0,29.83,North,0,0.0,3.0,91,0.00,,,0.00,,2013-03-28 06:12:00,
2013-03-28 06:22:00,29.0,27.0,29.83,North,0,0.0,3.0,91,0.00,,,0.00,,2013-03-28 06:22:00,
2013-03-28 06:32:00,29.0,27.0,29.84,East,90,1.0,4.0,91,0.00,,,0.00,,2013-03-28 06:32:00,
2013-03-28 06:41:00,29.0,27.0,29.84,East,90,1.0,4.0,91,0.00,,,0.00,,2013-03-28 06:41:00,
2013-03-28 06:52:00,30.0,28.0,29.84,East,93,1.0,4.0,91,0.00,,,0.00,,2013-03-28 06:52:00,
2013-03-28 07:02:00,30.0,28.0,29.84,East,93,1.0,4.0,91,0.00,,,0.00,,2013-03-28 07:02:00,
2013-03-28 07:12:00,30.0,28.0,29.84,East,93,1.0,4.0,91,0.00,,,0.00,,2013-03-28 07:12:00,
2013-03-28 07:21:00,31.0,29.0,29.84,North,0,0.0,3.0,91,0.00,,,0.00,,2013-03-28 07:21:00,
2013-03-28 07:31:00,31.0,28.0,29.84,North,0,0.0,3.0,89,0.00,,,0.00,,2013-03-28 07:31:00,
2013-03-28 07:42:00,31.0,28.0,29.84,North,0,0.0,3.0,89,0.00,,,0.00,,2013-03-28 07:42:00,
2013-03-28 07:51:00,32.0,29.0,29.85,East,94,1.0,6.0,87,0.00,,,0.00,,2013-03-28 07:51:00,
2013-03-28 08:02:00,32.0,29.0,29.85,East,94,1.0,6.0,87,0.00,,,0.00,,2013-03-28 08:02:00,
2013-03-28 08:11:00,32.0,29.0,29.85,East,94,1.0,6.0,87,0.00,,,0.00,,2013-03-28 08:11:00,
2013-03-28 08:21:00,34.0,30.0,29.85,East,84,1.0,7.0,86,0.00,,,0.00,,2013-03-28 08:21:00,
2013-03-28 08:31:00,35.0,30.0,29.85,ESE,105,1.0,7.0,81,0.00,,,0.00,,2013-03-28 08:31:00,
2013-03-28 08:42:00,35.0,30.0,29.85,ESE,105,1.0,7.0,81,0.00,,,0.00,,2013-03-28 08:42:00,
2013-03-28 08:52:00,35.0,30.0,29.85,ESE,105,1.0,7.0,81,0.00,,,0.00,,2013-03-28 08:52:00,
2013-03-28 09:01:00,36.0,29.0,29.85,East,92,2.0,6.0,77,0.00,,,0.00,,2013-03-28 09:01:00,
2013-03-28 09:11:00,36.0,29.0,29.85,East,92,2.0,6.0,77,0.00,,,0.00,,2013-03-28 09:11:00,
2013-03-28 09:22:00,37.0,30.0,29.86,East,94,2.0,8.0,75,0.00,,,0.00,,2013-03-28 09:22:00,
2013-03-28 09:32:00,38.0,30.0,29.86,East,86,4.0,11.0,73,0.00,,,0.00,,2013-03-28 09:32:00,
2013-03-28 09:42:00,38.0,30.0,29.86,East,86,4.0,11.0,73,0.00,,,0.00,,2013-03-28 09:42:00,
2013-03-28 09:52:00,38.0,30.0,29.86,East,86,4.0,11.0,73,0.00,,,0.00,,2013-03-28 09:52:00,
2013-03-28 10:02:00,38.0,30.0,29.86,East,80,4.0,11.0,72,0.00,,,0.00,,2013-03-28 10:02:00,
2013-03-28 10:12:00,38.0,30.0,29.86,East,80,4.0,11.0,72,0.00,,,0.00,,2013-03-28 10:12:00,
2013-03-28 10:22:00,38.0,29.0,29.87,East,90,4.0,11.0,69,0.00,,,0.00,,2013-03-28 10:22:00,
2013-03-28 10:32:00,38.0,29.0,29.87,East,90,4.0,11.0,69,0.00,,,0.00,,2013-03-28 10:32:00,
2013-03-28 10:41:00,38.0,29.0,29.87,East,90,4.0,11.0,69,0.00,,,0.00,,2013-03-28 10:41:00,
2013-03-28 10:52:00,40.0,30.0,29.87,East,87,3.0,10.0,67,0.00,,,0.00,,2013-03-28 10:52:00,
2013-03-28 11:02:00,38.0,28.0,29.87,East,90,2.0,9.0,68,0.00,,,0.00,,2013-03-28 11:02:00,
2013-03-28 11:12:00,38.0,28.0,29.87,East,90,2.0,9.0,68,0.00,,,0.00,,2013-03-28 11:12:00,
2013-03-28 11:22:00,38.0,28.0,29.88,East,90,4.0,11.0,67,0.00,,,0.00,,2013-03-28 11:22:00,
2013-03-28 11:32:00,38.0,28.0,29.88,East,90,4.0,11.0,67,0.00,,,0.00,,2013-03-28 11:32:00,
2013-03-28 11:42:00,38.0,28.0,29.88,East,90,4.0,11.0,67,0.00,,,0.00,,2013-03-28 11:42:00,
2013-03-28 11:52:00,38.0,28.0,29.88,East,80,4.0,11.0,68,0.00,,,0.00,,2013-03-28 11:52:00,
2013-03-28 12:02:00,38.0,28.0,29.88,East,94,3.0,9.0,68,0.00,,,0.00,,2013-03-28 12:02:00,
2013-03-28 12:12:00,38.0,28.0,29.88,East,94,3.0,9.0,68,0.00,,,0.00,,2013-03-28 12:12:00,
2013-03-28 12:22:00,38.0,28.0,29.88,East,94,3.0,9.0,68,0.00,,,0.00,,2013-03-28 12:22:00,
2013-03-28 12:32:00,38.0,28.0,29.88,East,88,4.0,13.0,68,0.00,,,0.00,,2013-03-28 12:32:00,
2013-03-28 12:41:00,38.0,28.0,29.88,East,88,4.0,13.0,68,0.00,,,0.00,,2013-03-28 12:41:00,
2013-03-28 12:52:00,38.0,27.0,29.88,East,79,4.0,15.0,64,0.00,,,0.00,,2013-03-28 12:52:00,
2013-03-28 13:02:00,37.0,26.0,29.88,East,101,4.0,12.0,64,0.00,,,0.00,,2013-03-28 13:02:00,
2013-03-28 13:11:00,37.0,26.0,29.88,East,101,4.0,12.0,64,0.00,,,0.00,,2013-03-28 13:11:00,
2013-03-28 13:21:00,37.0,26.0,29.88,East,101,4.0,12.0,64,0.00,,,0.00,,2013-03-28 13:21:00,
2013-03-28 13:32:00,37.0,27.0,29.88,ESE,104,2.0,6.0,67,0.00,,,0.00,,2013-03-28 13:32:00,
2013-03-28 13:41:00,37.0,27.0,29.88,ESE,104,2.0,6.0,67,0.00,,,0.00,,2013-03-28 13:41:00,
2013-03-28 13:52:00,38.0,27.0,29.89,East,93,2.0,7.0,65,0.00,,,0.00,,2013-03-28 13:52:00,
2013-03-28 14:02:00,38.0,27.0,29.89,East,93,2.0,7.0,65,0.00,,,0.00,,2013-03-28 14:02:00,
2013-03-28 14:11:00,38.0,27.0,29.89,East,93,2.0,7.0,65,0.00,,,0.00,,2013-03-28 14:11:00,
2013-03-28 14:21:00,38.0,27.0,29.88,East,95,2.0,7.0,64,0.00,,,0.00,,2013-03-28 14:21:00,
2013-03-28 14:32:00,38.0,27.0,29.88,East,91,2.0,8.0,64,0.00,,,0.00,,2013-03-28 14:32:00,
2013-03-28 14:42:00,38.0,27.0,29.88,East,91,2.0,8.0,64,0.00,,,0.00,,2013-03-28 14:42:00,
2013-03-28 14:51:00,38.0,26.0,29.88,East,85,4.0,11.0,62,0.00,,,0.00,,2013-03-28 14:51:00,
2013-03-28 15:01:00,38.0,26.0,29.88,East,85,4.0,11.0,62,0.00,,,0.00,,2013-03-28 15:01:00,
2013-03-28 15:11:00,38.0,26.0,29.88,East,85,4.0,11.0,62,0.00,,,0.00,,2013-03-28 15:11:00,
2013-03-28 15:21:00,39.0,26.0,29.88,ENE,78,3.0,11.0,60,0.00,,,0.00,,2013-03-28 15:21:00,
2013-03-28 15:32:00,39.0,26.0,29.88,SSE,159,2.0,8.0,60,0.00,,,0.00,,2013-03-28 15:32:00,
2013-03-28 15:43:00,39.0,26.0,29.88,SSE,159,2.0,8.0,60,0.00,,,0.00,,2013-03-28 15:43:00,
2013-03-28 15:52:00,39.0,26.0,29.88,SSE,159,2.0,8.0,60,0.00,,,0.00,,2013-03-28 15:52:00,
2013-03-28 16:02:00,38.0,26.0,29.88,East,79,2.0,10.0,61,0.00,,,0.00,,2013-03-28 16:02:00,
2013-03-28 16:12:00,38.0,26.0,29.88,East,79,2.0,10.0,61,0.00,,,0.00,,2013-03-28 16:12:00,
2013-03-28 16:23:00,39.0,26.0,29.88,SE,143,1.0,5.0,60,0.00,,,0.00,,2013-03-28 16:23:00,
2013-03-28 16:32:00,39.0,25.0,29.89,SSW,194,1.0,9.0,58,0.00,,,0.00,,2013-03-28 16:32:00,
2013-03-28 16:42:00,39.0,25.0,29.89,SSW,194,1.0,9.0,58,0.00,,,0.00,,2013-03-28 16:42:00,
2013-03-28 16:51:00,39.0,25.0,29.89,SSW,194,1.0,9.0,58,0.00,,,0.00,,2013-03-28 16:51:00,
2013-03-28 17:02:00,39.0,25.0,29.89,East,81,1.0,7.0,57,0.00,,,0.00,,2013-03-28 17:02:00,
2013-03-28 17:12:00,39.0,25.0,29.89,East,81,1.0,7.0,57,0.00,,,0.00,,2013-03-28 17:12:00,
2013-03-28 17:22:00,38.0,24.0,29.90,SSW,207,1.0,8.0,56,0.00,,,0.00,,2013-03-28 17:22:00,
2013-03-28 17:32:00,38.0,24.0,29.90,SSW,207,1.0,8.0,56,0.00,,,0.00,,2013-03-28 17:32:00,
2013-03-28 17:42:00,38.0,24.0,29.90,SSW,207,1.0,8.0,56,0.00,,,0.00,,2013-03-28 17:42:00,
2013-03-28 17:52:00,38.0,25.0,29.90,East,100,1.0,7.0,58,0.00,,,0.00,,2013-03-28 17:52:00,
2013-03-28 18:01:00,38.0,24.0,29.90,East,85,3.0,10.0,57,0.00,,,0.00,,2013-03-28 18:01:00,
2013-03-28 18:12:00,38.0,24.0,29.90,East,85,3.0,10.0,57,0.00,,,0.00,,2013-03-28 18:12:00,
2013-03-28 18:21:00,37.0,24.0,29.91,East,91,2.0,7.0,58,0.00,,,0.00,,2013-03-28 18:21:00,
2013-03-28 18:32:00,37.0,24.0,29.91,East,91,2.0,7.0,58,0.00,,,0.00,,2013-03-28 18:32:00,
2013-03-28 18:41:00,37.0,24.0,29.91,East,91,2.0,7.0,58,0.00,,,0.00,,2013-03-28 18:41:00,
2013-03-28 18:52:00,37.0,24.0,29.91,East,81,2.0,5.0,59,0.00,,,0.00,,2013-03-28 18:52:00,
2013-03-28 19:01:00,37.0,24.0,29.91,East,92,2.0,7.0,59,0.00,,,0.00,,2013-03-28 19:01:00,
2013-03-28 19:12:00,37.0,24.0,29.91,East,92,2.0,7.0,59,0.00,,,0.00,,2013-03-28 19:12:00,
2013-03-28 19:22:00,37.0,24.0,29.91,East,92,2.0,7.0,59,0.00,,,0.00,,2013-03-28 19:22:00,
2013-03-28 19:32:00,36.0,23.0,29.92,East,90,2.0,9.0,60,0.00,,,0.00,,2013-03-28 19:32:00,
2013-03-28 19:41:00,36.0,23.0,29.92,East,90,2.0,9.0,60,0.00,,,0.00,,2013-03-28 19:41:00,
2013-03-28 19:52:00,36.0,23.0,29.93,East,90,2.0,8.0,60,0.00,,,0.00,,2013-03-28 19:52:00,
2013-03-28 20:02:00,36.0,24.0,29.93,ENE,77,1.0,6.0,61,0.00,,,0.00,,2013-03-28 20:02:00,
2013-03-28 20:12:00,36.0,24.0,29.93,ENE,77,1.0,6.0,61,0.00,,,0.00,,2013-03-28 20:12:00,
2013-03-28 20:21:00,36.0,24.0,29.93,ENE,77,1.0,6.0,61,0.00,,,0.00,,2013-03-28 20:21:00,
2013-03-28 20:32:00,36.0,24.0,29.94,East,93,1.0,6.0,62,0.00,,,0.00,,2013-03-28 20:32:00,
2013-03-28 20:42:00,36.0,24.0,29.94,East,93,1.0,6.0,62,0.00,,,0.00,,2013-03-28 20:42:00,
2013-03-28 20:53:00,36.0,25.0,29.94,ENE,71,2.0,5.0,65,0.00,,,0.00,,2013-03-28 20:53:00,
2013-03-28 21:02:00,36.0,25.0,29.94,ENE,71,2.0,5.0,65,0.00,,,0.00,,2013-03-28 21:02:00,
2013-03-28 21:22:00,36.0,26.0,29.93,East,83,1.0,4.0,67,0.00,,,0.00,,2013-03-28 21:22:00,
2013-03-28 21:32:00,35.0,26.0,29.93,East,92,2.0,7.0,70,0.00,,,0.00,,2013-03-28 21:32:00,
2013-03-28 21:42:00,35.0,26.0,29.93,East,92,2.0,7.0,70,0.00,,,0.00,,2013-03-28 21:42:00,
2013-03-28 21:53:00,35.0,26.0,29.93,East,84,2.0,7.0,69,0.00,,,0.00,,2013-03-28 21:53:00,
2013-03-28 22:02:00,35.0,26.0,29.93,East,84,2.0,7.0,69,0.00,,,0.00,,2013-03-28 22:02:00,
2013-03-28 22:12:00,35.0,26.0,29.93,East,84,2.0,7.0,69,0.00,,,0.00,,2013-03-28 22:12:00,
2013-03-28 22:22:00,35.0,24.0,29.92,East,88,2.0,7.0,64,0.00,,,0.00,,2013-03-28 22:22:00,
2013-03-28 22:32:00,34.0,23.0,29.92,East,94,2.0,8.0,65,0.00,,,0.00,,2013-03-28 22:32:00,
2013-03-28 22:42:00,34.0,23.0,29.92,East,94,2.0,8.0,65,0.00,,,0.00,,2013-03-28 22:42:00,
2013-03-28 22:52:00,34.0,23.0,29.92,East,94,2.0,8.0,65,0.00,,,0.00,,2013-03-28 22:52:00,
2013-03-28 23:02:00,34.0,23.0,29.92,East,94,1.0,4.0,65,0.00,,,0.00,,2013-03-28 23:02:00,
2013-03-28 23:11:00,34.0,23.0,29.92,East,94,1.0,4.0,65,0.00,,,0.00,,2013-03-28 23:11:00,
2013-03-28 23:21:00,33.0,24.0,29.92,North,0,0.0,5.0,69,0.00,,,0.00,,2013-03-28 23:21:00,
2013-03-28 23:32:00,33.0,25.0,29.92,North,0,0.0,2.0,72,0.00,,,0.00,,2013-03-28 23:32:00,
2013-03-28 23:42:00,33.0,25.0,29.92,North,0,0.0,2.0,72,0.00,,,0.00,,2013-03-28 23:42:00,
2013-03-28 23:52:00,33.0,25.0,29.92,North,0,0.0,2.0,72,0.00,,,0.00,,2013-03-28 23:52:00,